Location: Cincinnati Observatory Center
(39.1389°N, 84.4225°W)
Time: 04:56:54
(UTC-04:00)

Hubble Space Telescope - Visible Passes

Search period start: 20 October 2017 00:00
Search period end: 30 October 2017 00:00
Orbit: 537 x 541 km, 28.5° (Epoch: 19 October)

Date Brightness Start Highest point End Pass type
(mag) Time Alt. Az. Time Alt. Az. Time Alt. Az.
20 Oct 3.2 20:28:18 10° S 20:29:13 11° SSE 20:29:13 11° SSE visible
21 Oct 3.0 20:17:18 10° SSW 20:19:10 13° SSE 20:19:41 13° SSE visible
22 Oct 2.9 20:06:35 10° SSW 20:08:51 14° SSE 20:10:06 13° SSE visible
23 Oct 2.9 19:56:02 10° SSW 19:58:34 16° S 20:00:30 12° SE visible
24 Oct 2.9 19:45:33 10° SW 19:48:16 17° S 19:50:53 10° SE visible
24 Oct 3.7 21:26:05 10° SW 21:26:15 11° SW 21:26:15 11° SW visible
25 Oct 2.8 19:35:08 10° SW 19:37:58 18° S 19:40:48 10° SE visible
25 Oct 3.5 21:15:56 10° SW 21:16:38 12° SW 21:16:38 12° SW visible
26 Oct 2.9 19:24:47 10° SW 19:27:41 18° S 19:30:34 10° SE visible
26 Oct 3.4 21:05:52 10° SW 21:07:03 13° SSW 21:07:03 13° SSW visible
27 Oct 2.9 19:14:29 10° SW 19:17:23 18° S 19:20:17 10° SE visible
27 Oct 3.3 20:55:55 10° SW 20:57:30 13° SSW 20:57:30 13° SSW visible
28 Oct 3.0 19:04:13 10° SW 19:07:06 18° S 19:09:57 10° SE visible
28 Oct 3.4 20:46:10 10° SW 20:47:36 12° SSW 20:48:00 11° S visible
